Vertical_Velocity
0 5 -3 -4 -1 -0 0 2 1 -6 -3 5 1 -1 -3 -2 4 2 -0 -1 -2 -5 1 0 0 1 -1 2 0 -2 -3 -1 -2 -3 -2 -1 -2 -0 -0 -0 -1 4 -0 -3
5 -2 -3 -0 0 0 0 2 -5 -5 0 6 -2 -6 -3 -0 -5 -5 -3 -2 -2 4 -1 -2 -0 -1 -2 -3 -2 -1 -0 -1 0 -1 1 0 2 -0 2 3 1 2 1 -3
-0 0 0 1 1 2 -1 2 -1 4 -4 -0 2 -3 -1 -5 1 3 2 2 4 -2 -1 -3 -2 -3 2 -3 -5 -5 -3 -1 -1 3 3 0 3 2 1 -1 -2 -2 2 -2
-1 -1 0 1 -0 2 2 -1 1 1 2 1 2 -8 -5 -2 -2 1 -0 0 -2 -2 2 2 -2 -4 -4 -3 0 1 -0 -2 -0 -0 -0 -4 -1 -1 -2 -2 1 0 3 1
-5 1 1 2 -9 -0 -4 1 2 1 1 3 1 5 -9 0 -2 -1 -2 -1 0 -1 -3 -4 -7 -4 1 -0 -3 -2 -0 0 -0 -2 -0 1 1 -1 4 1 0 -0 2 0
-3 0 0 -2 -0 -2 0 2 0 0 1 4 -0 5 -10 -0 -0 -2 -0 0 -1 0 -2 2 9 2 -2 3 1 1 -0 -0 -2 -0 1 -1 -2 -1 -1 0 -2 -2 -1 0
-1 -5 -1 2 5 3 3 3 -0 4 4 1 0 4 -12 -5 -2 2 -0 -1 -1 0 -1 -1 -3 -6 -2 -3 -2 -3 -1 -2 -1 -1 -1 -0 0 -2 1 1 0 -0 -0 -2
1 0 0 0 -6 -4 -2 0 0 -0 0 -1 1 -2 -11 -0 -1 -0 1 -1 -0 -0 -1 0 -4 -2 -0 -3 -0 0 -3 -1 -4 -2 -2 -1 -0 -2 -1 2 1 1 1 -1
1 -3 -0 1 -0 1 1 3 -2 3 1 5 -2 -5 -8 -1 -3 -1 1 0 -0 -0 -3 -2 -4 -1 -1 -5 -5 -1 -3 -0 -1 -1 -0 -3 1 -2 -6 -0 1 2 2 0
-3 -0 0 1 2 3 3 -1 8 2 2 -1 -1 -1 -6 -5 -4 -2 -2 2 0 1 -1 -2 -1 -2 -0 4 2 -0 0 -0 3 3 1 -2 -2 1 1 1 -1 -1 1 4
-1 6 -2 3 1 -4 4 2 2 4 2 1 0 -6 -3 -2 1 0 -1 1 2 4 -0 -1 -0 1 1 2 -2 -0 -2 1 -2 1 2 1 -1 -2 -1 -1 0 -2 2 -0
-3 -0 0 -7 -1 0 -0 -1 -3 5 -1 1 2 -14 -1 -1 0 1 -1 -0 1 3 -4 5 -0 0 -1 1 0 1 -2 -3 3 5 2 1 4 3 -0 -2 -1 0 -1 1
-1 1 -0 -5 9 5 1 -1 -1 0 1 -4 6 -13 0 -0 -0 -1 1 -1 -1 0 2 -1 3 -1 0 0 -2 -2 -2 -0 -0 -1 1 1 -1 -2 -1 -0 -0 -1 -2 -2
2 0 2 1 1 3 1 -1 -0 2 5 -5 -7 -8 -2 -2 -1 -1 -1 0 1 0 -1 -1 -2 8 5 2 3 2 1 -2 -0 -1 -1 -2 -1 -1 -1 1 -0 0 1 -0
1 1 1 -2 -1 2 1 1 -1 2 -7 5 -11 -1 -7 -2 1 1 2 -0 0 -2 -2 -1 -1 -1 -2 0 3 2 2 2 2 1 -0 -4 2 2 0 -0 1 1 -1 -0
-0 -1 0 -3 -1 1 0 -1 0 -0 -1 1 1 -3 -1 1 -1 -1 0 1 2 2 0 2 -0 0 1 3 -1 -1 -0 0 -1 0 1 4 1 1 -1 1 1 2 1 -1
2 2 3 -9 1 0 2 -4 -1 -1 0 -0 1 -5 0 0 0 1 -1 1 3 2 5 3 1 2 2 0 1 3 -1 1 -1 2 4 2 1 2 -1 1 -0 -1 -0 0
1 2 2 -3 3 8 -13 -0 0 1 -1 0 1 -0 1 1 2 1 0 -1 1 2 2 1 2 2 1 2 3 1 4 3 5 3 0 -1 -1 0 3 1 -3 1 1 -3
2 1 0 3 1 -12 -8 1 3 6 2 1 1 1 1 2 2 2 2 -2 -1 4 7 4 4 0 4 1 0 1 3 5 1 -2 2 3 3 2 -0 -3 -3 -3 -2 1
-1 1 4 2 4 0 7 -1 1 2 5 2 1 1 1 -1 1 1 0 9 -4 -2 -4 -0 4 2 -6 -2 7 5 1 4 13 8 9 8 7 4 4 7 4 6 -1 -1
-1 -0 1 -1 0 -1 3 0 1 13 12 1 1 3 2 1 3 -6 -2 17 11 3 -5 -11 -1 5 3 -6 -7 6 -5 -6 -1 3 7 4 5 5 4 6 7 5 4 3
2 3 1 1 2 3 -0 -4 2 11 -1 3 0 2 -1 1 1 -1 4 4 4 1 0 3 -3 -1 -2 8 5 -14 -3 11 -23 1 -3 8 6 1 1 1 2 5 3 1
4 6 5 7 3 3 -1 0 1 1 3 -2 0 1 3 1 0 2 3 9 4 2 4 -3 2 -2 0 1 -2 5 -5 -10 -6 -15 -75 -23 11 8 -7 -3 -2 -2 -3 2
-1 -1 2 3 -4 -1 -0 -0 4 0 -1 -6 -1 1 2 2 2 -1 -2 -1 -1 2 4 -1 -2 1 -4 -1 11 0 -6 -3 14 -1 -22 6 15 1 -3 -0 3 4 3 5
0 4 -0 -7 -6 -2 -7 4 4 2 6 2 1 -3 -3 -1 -1 2 1 1 2 3 4 5 0 -6 -4 -2 -1 -1 2 8 -6 -8 -11 8 12 -2 -8 -4 4 4 5 -5
1 3 5 -0 -0 7 -6 -6 -2 -2 -8 -2 1 -1 3 -1 -8 1 -4 -1 -1 -1 1 -2 3 4 6 -1 2 -0 -0 -4 -4 -0 -0 -7 3 -8 -8 2 -3 -6 -1 2
Height
1528 1528 1527 1525 1532 1533 1536 1537 1536 1522 1522 1522 1513 1511 1501 1504 1507 1509 1510 1514 1516 1517 1523 1526 1529 1534 1537 1540 1543 1547 1550 1554 1557 1560 1562 1564 1566 1569 1572 1574 1577 1580 1583 1585
1528 1526 1527 1529 1532 1534 1535 1536 1529 1519 1520 1520 1509 1505 1495 1499 1498 1498 1501 1506 1509 1514 1518 1521 1525 1529 1533 1536 1540 1543 1547 1551 1554 1557 1560 1563 1565 1567 1570 1573 1575 1578 1581 1584
1528 1526 1524 1528 1531 1533 1531 1534 1531 1530 1517 1513 1512 1504 1495 1487 1491 1493 1495 1498 1504 1507 1511 1515 1519 1523 1528 1532 1535 1539 1543 1547 1551 1554 1557 1560 1563 1565 1568 1570 1573 1576 1579 1582
1525 1523 1525 1527 1529 1530 1534 1524 1526 1527 1529 1527 1514 1519 1492 1489 1487 1488 1487 1491 1495 1500 1506 1510 1514 1518 1522 1527 1532 1536 1540 1543 1547 1550 1553 1557 1559 1562 1564 1568 1571 1574 1576 1579
1522 1521 1523 1523 1521 1525 1524 1523 1523 1523 1525 1525 1518 1521 1492 1492 1484 1480 1481 1483 1486 1491 1497 1502 1506 1512 1518 1523 1527 1531 1536 1539 1543 1546 1549 1553 1556 1559 1562 1565 1567 1569 1572 1576
1518 1519 1518 1516 1519 1520 1521 1521 1523 1526 1524 1528 1518 1518 1493 1487 1481 1477 1478 1479 1483 1487 1491 1496 1502 1508 1514 1519 1523 1527 1530 1535 1539 1542 1545 1548 1552 1556 1558 1560 1562 1565 1567 1572
1516 1510 1510 1514 1518 1520 1520 1521 1529 1530 1529 1527 1523 1523 1495 1479 1477 1476 1472 1475 1477 1482 1487 1492 1496 1501 1508 1512 1518 1523 1527 1530 1534 1537 1541 1544 1548 1552 1554 1558 1560 1563 1565 1568
1521 1519 1507 1506 1506 1509 1514 1512 1523 1543 1534 1522 1525 1514 1488 1476 1475 1472 1468 1469 1472 1477 1482 1487 1491 1495 1502 1507 1513 1517 1522 1526 1529 1533 1537 1541 1545 1548 1551 1554 1557 1561 1564 1567
1520 1515 1501 1502 1501 1503 1513 1517 1505 1515 1535 1529 1508 1498 1479 1471 1469 1469 1467 1468 1470 1473 1477 1481 1486 1491 1496 1501 1506 1512 1517 1521 1525 1529 1533 1536 1540 1543 1546 1550 1554 1558 1561 1564
1507 1517 1496 1498 1501 1504 1503 1504 1514 1517 1531 1532 1510 1513 1494 1477 1470 1467 1466 1468 1469 1472 1476 1479 1482 1486 1490 1496 1502 1508 1512 1516 1520 1524 1528 1532 1535 1538 1542 1546 1549 1552 1557 1560
1506 1511 1502 1497 1497 1496 1506 1506 1509 1509 1509 1514 1518 1500 1477 1477 1473 1472 1469 1468 1470 1471 1472 1475 1478 1482 1487 1491 1496 1501 1507 1510 1514 1519 1523 1527 1530 1534 1537 1540 1543 1547 1551 1555
1504 1505 1508 1497 1490 1491 1491 1491 1496 1506 1516 1513 1508 1496 1475 1474 1473 1472 1470 1467 1466 1467 1471 1473 1475 1478 1481 1485 1490 1494 1501 1504 1508 1514 1518 1522 1526 1529 1531 1534 1538 1541 1545 1548
1504 1507 1509 1494 1490 1493 1493 1489 1487 1488 1496 1509 1504 1489 1472 1472 1470 1468 1467 1465 1464 1464 1466 1469 1471 1472 1476 1479 1484 1488 1494 1499 1503 1508 1512 1516 1519 1523 1526 1529 1532 1535 1539 1543
1504 1502 1502 1506 1494 1497 1496 1487 1491 1488 1489 1486 1488 1475 1468 1467 1467 1466 1464 1463 1463 1462 1464 1465 1469 1471 1472 1476 1479 1483 1487 1493 1496 1500 1506 1510 1513 1517 1521 1524 1527 1530 1534 1537
1505 1505 1505 1496 1494 1493 1491 1488 1484 1489 1479 1486 1468 1478 1463 1462 1468 1468 1466 1463 1463 1463 1464 1465 1466 1467 1470 1473 1476 1479 1483 1487 1490 1494 1498 1503 1508 1512 1516 1520 1523 1526 1528 1532
1505 1504 1505 1500 1489 1489 1490 1482 1480 1479 1478 1481 1477 1474 1466 1466 1467 1469 1468 1465 1464 1462 1462 1463 1464 1465 1467 1469 1471 1476 1479 1482 1486 1488 1492 1498 1502 1507 1511 1515 1518 1521 1524 1527
1508 1502 1503 1500 1490 1489 1488 1477 1474 1470 1471 1473 1477 1467 1468 1468 1468 1470 1471 1470 1468 1466 1464 1463 1464 1465 1465 1467 1469 1471 1474 1478 1481 1484 1488 1492 1497 1502 1506 1510 1513 1516 1518 1522
1505 1509 1505 1500 1496 1505 1474 1472 1472 1472 1473 1471 1470 1471 1472 1473 1474 1473 1472 1472 1471 1470 1467 1465 1463 1463 1463 1465 1467 1470 1471 1474 1478 1481 1485 1488 1491 1496 1501 1504 1508 1511 1513 1515
1505 1505 1504 1504 1494 1481 1475 1478 1479 1475 1473 1476 1474 1473 1473 1477 1477 1477 1474 1472 1473 1473 1472 1469 1465 1463 1461 1462 1464 1466 1470 1473 1476 1479 1481 1484 1486 1490 1494 1497 1501 1505 1508 1510
1505 1507 1502 1505 1503 1497 1485 1483 1482 1480 1475 1480 1480 1479 1477 1476 1477 1479 1480 1472 1471 1473 1472 1472 1470 1468 1465 1462 1464 1465 1468 1474 1478 1482 1483 1484 1485 1487 1489 1493 1495 1499 1502 1506
1503 1503 1501 1497 1498 1486 1488 1484 1480 1486 1487 1485 1483 1481 1478 1476 1476 1476 1480 1471 1467 1469 1471 1476 1476 1471 1469 1468 1465 1467 1467 1471 1477 1482 1483 1485 1485 1484 1486 1489 1491 1493 1496 1499
1507 1506 1501 1502 1501 1497 1490 1485 1487 1496 1492 1489 1487 1485 1482 1480 1480 1478 1477 1475 1475 1477 1477 1477 1473 1471 1469 1469 1468 1467 1466 1461 1474 1474 1477 1485 1484 1481 1482 1484 1485 1486 1489 1492
1509 1509 1508 1505 1496 1496 1496 1496 1496 1494 1493 1490 1488 1486 1483 1482 1480 1478 1475 1473 1473 1472 1475 1471 1470 1468 1467 1466 1465 1466 1465 1463 1466 1474 1469 1484 1483 1478 1478 1479 1481 1481 1482 1484
1508 1510 1507 1506 1496 1495 1495 1494 1493 1493 1490 1488 1487 1484 1482 1480 1478 1476 1474 1472 1471 1470 1471 1469 1469 1466 1466 1467 1466 1466 1467 1469 1470 1465 1482 1486 1481 1472 1472 1475 1474 1474 1474 1477
1512 1510 1503 1500 1497 1494 1491 1491 1489 1487 1487 1485 1483 1480 1478 1476 1473 1472 1470 1468 1467 1466 1465 1464 1463 1463 1465 1465 1465 1466 1466 1464 1463 1466 1474 1477 1472 1465 1469 1471 1469 1468 1468 1471
1509 1506 1503 1497 1498 1497 1491 1489 1486 1483 1480 1478 1475 1471 1471 1471 1468 1466 1464 1463 1462 1461 1461 1460 1461 1461 1460 1460 1461 1461 1461 1462 1465 1466 1464 1467 1466 1463 1467 1465 1463 1465 1464 1465